| time (UTC) | temp F | wind direction | speed MPH | gust MPH | rain 1hr in | rain 24hr in | rain mn in | humidity % | barometer mb |
| 20260507133210 | 55 | 344 | 5.0 | 0.0 | 0.00 | 0.00 | 0.28 | 82 | 1016.7 |
| 20260507130210 | 55 | 323 | 9.0 | 0.0 | 0.00 | 0.00 | 0.28 | 81 | 1016.4 |
| 20260507123210 | 56 | 269 | 3.0 | 0.0 | 0.00 | 0.00 | 0.28 | 84 | 1016.3 |
| 20260507120211 | 54 | 232 | 5.0 | 0.0 | 0.00 | 0.00 | 0.28 | 84 | 1016.3 |
| 20260507113210 | 56 | 269 | 5.0 | 0.0 | 0.00 | 0.00 | 0.28 | 80 | 1016.3 |
| 20260507110210 | 51 | 318 | 3.0 | 0.0 | 0.00 | 0.00 | 0.28 | 81 | 1016.6 |
| 20260507103216 | 52 | 360 | 4.0 | 0.0 | 0.00 | 0.00 | 0.28 | 79 | 1016.5 |
| 20260507100212 | 51 | 0 | 4.0 | 0.0 | 0.00 | 0.00 | 0.28 | 78 | 1016.3 |
| 20260507093211 | 50 | 294 | 5.0 | 0.0 | 0.00 | 0.00 | 0.28 | 74 | 1016.2 |
| 20260507090211 | 51 | 346 | 6.0 | 0.0 | 0.00 | 0.00 | 0.28 | 74 | 1015.8 |
| 20260507083212 | 51 | 319 | 9.0 | 0.0 | 0.00 | 0.00 | 0.27 | 74 | 1015.6 |
| 20260507080211 | 50 | 290 | 5.0 | 0.0 | 0.00 | 0.00 | 0.27 | 74 | 1015.4 |
| 20260507073212 | 50 | 34 | 5.0 | 0.0 | 0.00 | 0.00 | 0.26 | 74 | 1014.9 |
| 20260507070212 | 49 | 284 | 2.0 | 0.0 | 0.00 | 0.00 | 0.26 | 74 | 1014.7 |
| 20260507063211 | 49 | 344 | 4.0 | 0.0 | 0.00 | 0.00 | 0.20 | 75 | 1014.4 |
| 20260507060211 | 49 | 286 | 4.0 | 0.0 | 0.00 | 0.00 | 0.15 | 75 | 1014.1 |
| 20260507053211 | 49 | 253 | 5.0 | 0.0 | 0.00 | 0.00 | 0.14 | 75 | 1013.8 |
| 20260507050213 | 49 | 277 | 6.0 | 0.0 | 0.00 | 0.00 | 0.14 | 75 | 1013.5 |
| 20260507043211 | 49 | 279 | 3.0 | 0.0 | 0.00 | 0.00 | 0.13 | 75 | 1013.1 |
| 20260507040216 | 49 | 272 | 4.0 | 0.0 | 0.00 | 0.00 | 0.11 | 75 | 1012.8 |
| 20260507033211 | 48 | 304 | 5.0 | 0.0 | 0.00 | 0.00 | 0.09 | 75 | 1012.7 |
| 20260507030211 | 49 | 286 | 3.0 | 0.0 | 0.00 | 0.00 | 0.09 | 75 | 1012.3 |
| 20260507023211 | 49 | 14 | 4.0 | 0.0 | 0.00 | 0.00 | 0.06 | 75 | 1012.2 |
| 20260507020211 | 49 | 313 | 3.0 | 0.0 | 0.00 | 0.00 | 0.04 | 75 | 1012.1 |
| 20260507013212 | 49 | 316 | 3.0 | 0.0 | 0.00 | 0.00 | 0.02 | 75 | 1011.9 |
| 20260507010211 | 49 | 355 | 3.0 | 0.0 | 0.00 | 0.00 | 0.02 | 75 | 1011.7 |
| 20260507003209 | 49 | 207 | 2.0 | 0.0 | 0.00 | 0.00 | 0.02 | 75 | 1011.6 |
| 20260507000209 | 49 | 305 | 1.0 | 0.0 | 0.00 | 0.00 | 0.02 | 75 | 1011.7 |
| 20260506233209 | 50 | 277 | 2.0 | 0.0 | 0.00 | 0.00 | 0.01 | 75 | 1011.7 |
| 20260506230209 | 50 | 272 | 5.0 | 0.0 | 0.00 | 0.00 | 0.01 | 75 | 1011.7 |
| 20260506223209 | 50 | 311 | 6.0 | 0.0 | 0.00 | 0.00 | 0.00 | 75 | 1011.6 |
| 20260506220209 | 50 | 336 | 6.0 | 0.0 | 0.00 | 0.00 | 0.00 | 75 | 1011.5 |
| 20260506213209 | 51 | 302 | 1.0 | 0.0 | 0.00 | 0.00 | 0.35 | 75 | 1011.2 |
| 20260506210210 | 51 | 288 | 0.0 | 0.0 | 0.00 | 0.00 | 0.35 | 75 | 1011.1 |
| 20260506203210 | 51 | 277 | 4.0 | 0.0 | 0.00 | 0.00 | 0.35 | 75 | 1011.0 |
| 20260506200210 | 51 | 294 | 6.0 | 0.0 | 0.00 | 0.00 | 0.35 | 75 | 1010.7 |
| 20260506193215 | 51 | 317 | 3.0 | 0.0 | 0.00 | 0.00 | 0.35 | 75 | 1010.5 |
| 20260506190211 | 51 | 350 | 5.0 | 0.0 | 0.00 | 0.00 | 0.35 | 75 | 1009.9 |
| 20260506183209 | 51 | 274 | 5.0 | 0.0 | 0.00 | 0.00 | 0.34 | 75 | 1009.6 |
| 20260506180216 | 52 | 250 | 5.0 | 0.0 | 0.00 | 0.00 | 0.32 | 75 | 1009.2 |
| 20260506173210 | 54 | 261 | 4.0 | 0.0 | 0.00 | 0.00 | 0.31 | 75 | 1008.9 |
| 20260506170215 | 54 | 270 | 0.0 | 0.0 | 0.00 | 0.00 | 0.29 | 75 | 1008.7 |
| 20260506163210 | 54 | 288 | 1.0 | 0.0 | 0.00 | 0.00 | 0.26 | 76 | 1008.6 |
| 20260506160210 | 54 | 328 | 2.0 | 0.0 | 0.00 | 0.00 | 0.22 | 77 | 1008.5 |
| 20260506153210 | 55 | 229 | 4.0 | 0.0 | 0.00 | 0.00 | 0.19 | 79 | 1008.3 |
| 20260506150210 | 54 | 315 | 2.0 | 0.0 | 0.00 | 0.00 | 0.09 | 81 | 1008.3 |
| 20260506143210 | 56 | 250 | 3.0 | 0.0 | 0.00 | 0.00 | 0.06 | 82 | 1007.9 |
| 20260506140210 | 58 | 183 | 2.0 | 0.0 | 0.00 | 0.00 | 0.03 | 84 | 1007.6 |